Overview Statistics Trail Chart Weather Telemetry Raw packets
 

This is the latest recevied weather packets stored in our database for station/object KB4MOX. If no packets are shown the sender has not sent any weather packets the latest 10 day(s).

<< 90 91 92 93 94 95 96 >>
Time Temp. Humidity Pressure Rain* Wind** Luminosity Snow
1787949767 30.56° C 70% 1016.4 hPa 0 mm - 397 W/m² -
1787949466 30.56° C 70% 1016.6 hPa 0 mm - 443 W/m² -
1787949161 30° C 71% 1016.3 hPa 0 mm - 346 W/m² -
1787948857 30° C 72% 1016.4 hPa 0 mm - 313 W/m² -
1787948558 30° C 73% 1016.4 hPa 0 mm - 356 W/m² -
1787948253 30° C 72% 1016.3 hPa 0 mm - 313 W/m² -
1787947952 29.44° C 73% 1016.5 hPa 0 mm - 272 W/m² -
1787947646 30° C 74% 1016.3 hPa 0 mm - 253 W/m² -
1787947346 29.44° C 73% 1016.5 hPa 0 mm - 548 W/m² -
1787947045 28.89° C 75% 1016.6 hPa 0 mm - 368 W/m² -
1787946744 29.44° C 75% 1016.7 hPa 0 mm - 261 W/m² -
1787946443 28.89° C 75% 1016.6 hPa 0 mm - 548 W/m² -
1787946144 28.89° C 76% 1016.8 hPa 0 mm - 260 W/m² -
1787945838 28.33° C 77% 1016.7 hPa 0 mm - 360 W/m² -
1787945534 28.33° C 78% 1016.6 hPa 0 mm - 274 W/m² -
1787945229 28.33° C 79% 1016.8 hPa 0 mm - 242 W/m² -
1787944928 28.33° C 78% 1017 hPa 0 mm - 246 W/m² -
1787944626 28.33° C 78% 1017 hPa 0 mm - 235 W/m² -
1787944321 27.78° C 79% 1017 hPa 0 mm - 246 W/m² -
1787944017 27.78° C 79% 1017.1 hPa 0 mm - 297 W/m² -
1787943712 27.78° C 79% 1017.1 hPa 0 mm - 204 W/m² -
1787943408 27.78° C 79% 1017.2 hPa 0 mm - 179 W/m² -
1787943102 27.78° C 80% 1017.3 hPa 0 mm - 133 W/m² -
1787942798 27.78° C 80% 1017.2 hPa 0 mm - 109 W/m² -
1787942497 27.78° C 79% 1017.3 hPa 0 mm - 109 W/m² -

* Rain latest hour (hover to see other rain measurements)
** Current wind speed in m/s (hover to see current wind gust speed)